| time (UTC) | temp C | wind direction | speed KPH | gust KPH | rain 1hr cm | rain 24hr cm | rain mn cm | humidity % | barometer mb |
| 20260906011531 | 15 | 202 | 0.0 | 1.6 | 0.00 | 0.15 | 0.10 | 81 | 1018.5 |
| 20260906010106 | 16 | 202 | 1.6 | 4.8 | 0.00 | 0.15 | 0.10 | 80 | 1018.7 |
| 20260906003031 | 17 | 246 | 3.2 | 6.4 | 0.08 | 0.15 | 0.10 | 79 | 1018.8 |
| 20260906001530 | 17 | 160 | 0.0 | 6.4 | 0.10 | 0.15 | 0.10 | 82 | 1018.9 |
| 20260905234529 | 15 | 83 | 4.8 | 11.3 | 0.10 | 0.15 | 0.03 | 84 | 1018.9 |
| 20260905233029 | 15 | 172 | 3.2 | 6.4 | 0.03 | 0.08 | 0.00 | 82 | 1019.1 |
| 20260905231528 | 16 | 220 | 0.0 | 6.4 | 0.00 | 0.05 | 0.00 | 80 | 1019.0 |
| 20260905230031 | 16 | 184 | 4.8 | 11.3 | 0.00 | 0.05 | 0.00 | 81 | 1018.9 |
| 20260905223031 | 16 | 212 | 6.4 | 12.9 | 0.00 | 0.05 | 0.00 | 76 | 1018.9 |
| 20260905221531 | 17 | 210 | 4.8 | 9.7 | 0.00 | 0.05 | 0.00 | 73 | 1018.8 |
| 20260905220104 | 18 | 161 | 0.0 | 6.4 | 0.00 | 0.05 | 0.00 | 70 | 1018.6 |
| 20260905214606 | 18 | 40 | 0.0 | 6.4 | 0.00 | 0.05 | 0.00 | 72 | 1018.6 |
| 20260905213033 | 17 | 241 | 1.6 | 6.4 | 0.00 | 0.05 | 0.00 | 73 | 1018.8 |
| 20260905210029 | 17 | 168 | 0.0 | 6.4 | 0.00 | 0.05 | 0.00 | 75 | 1019.2 |
| 20260905203032 | 17 | 137 | 1.6 | 8.0 | 0.00 | 0.05 | 0.00 | 77 | 1019.2 |
| 20260905201530 | 16 | 132 | 3.2 | 8.0 | 0.00 | 0.05 | 0.00 | 79 | 1019.3 |
| 20260905200030 | 16 | 263 | 1.6 | 9.7 | 0.00 | 0.05 | 0.00 | 78 | 1019.4 |
| 20260905194531 | 16 | 239 | 1.6 | 6.4 | 0.00 | 0.05 | 0.00 | 80 | 1019.5 |
| 20260905193031 | 16 | 227 | 1.6 | 6.4 | 0.00 | 0.05 | 0.00 | 81 | 1019.5 |
| 20260905191528 | 16 | 230 | 3.2 | 8.0 | 0.00 | 0.05 | 0.00 | 82 | 1019.6 |
| 20260905190033 | 16 | 247 | 1.6 | 6.4 | 0.00 | 0.05 | 0.00 | 83 | 1019.7 |
| 20260905184530 | 16 | 242 | 1.6 | 6.4 | 0.00 | 0.05 | 0.00 | 83 | 1019.8 |
| 20260905183035 | 16 | 322 | 1.6 | 8.0 | 0.00 | 0.05 | 0.00 | 82 | 1019.8 |
| 20260905181605 | 16 | 351 | 3.2 | 11.3 | 0.00 | 0.05 | 0.00 | 86 | 1019.9 |
| 20260905180032 | 15 | 24 | 1.6 | 8.0 | 0.00 | 0.05 | 0.00 | 89 | 1020.0 |
| 20260905174606 | 14 | 20 | 0.0 | 4.8 | 0.00 | 0.05 | 0.00 | 93 | 1020.0 |
| 20260905173030 | 13 | 45 | 0.0 | 3.2 | 0.00 | 0.05 | 0.00 | 95 | 1020.0 |
| 20260905171644 | 12 | 45 | 0.0 | 0.0 | 0.00 | 0.05 | 0.00 | 96 | 1019.9 |
| 20260905170030 | 11 | 45 | 0.0 | 0.0 | 0.00 | 0.05 | 0.00 | 96 | 1019.9 |
| 20260905164531 | 11 | 36 | 0.0 | 4.8 | 0.00 | 0.05 | 0.00 | 96 | 1019.9 |
| 20260905163107 | 11 | 22 | 0.0 | 0.0 | 0.00 | 0.05 | 0.00 | 96 | 1019.9 |
| 20260905161528 | 11 | 22 | 0.0 | 0.0 | 0.00 | 0.05 | 0.00 | 96 | 1019.8 |
| 20260905160031 | 11 | 22 | 0.0 | 0.0 | 0.00 | 0.05 | 0.00 | 96 | 1019.8 |
| 20260905154531 | 10 | 22 | 0.0 | 1.6 | 0.00 | 0.05 | 0.00 | 96 | 1019.8 |
| 20260905153032 | 10 | 11 | 0.0 | 4.8 | 0.00 | 0.05 | 0.00 | 97 | 1019.8 |
| 20260905151530 | 9 | 202 | 0.0 | 0.0 | 0.00 | 0.05 | 0.00 | 96 | 1019.7 |
| 20260905150031 | 8 | 201 | 0.0 | 0.0 | 0.00 | 0.05 | 0.00 | 96 | 1019.6 |
| 20260905144530 | 8 | 157 | 0.0 | 0.0 | 0.00 | 0.05 | 0.00 | 96 | 1019.5 |
| 20260905143030 | 7 | 157 | 0.0 | 6.4 | 0.00 | 0.05 | 0.00 | 96 | 1019.5 |
| 20260905141541 | 7 | 157 | 0.0 | 6.4 | 0.00 | 0.05 | 0.00 | 96 | 1019.4 |
| 20260905134531 | 6 | 157 | 0.0 | 4.8 | 0.00 | 0.05 | 0.00 | 96 | 1019.2 |
| 20260905133032 | 6 | 157 | 0.0 | 3.2 | 0.00 | 0.05 | 0.00 | 96 | 1019.1 |
| 20260905131530 | 7 | 177 | 0.0 | 3.2 | 0.00 | 0.05 | 0.00 | 96 | 1019.0 |
| 20260905130030 | 7 | 164 | 0.0 | 3.2 | 0.00 | 0.08 | 0.00 | 96 | 1019.0 |
| 20260905124608 | 7 | 157 | 0.0 | 3.2 | 0.00 | 0.08 | 0.00 | 96 | 1019.1 |
| 20260905121605 | 8 | 147 | 0.0 | 3.2 | 0.00 | 0.10 | 0.00 | 96 | 1019.1 |
| 20260905120107 | 8 | 197 | 1.6 | 4.8 | 0.00 | 0.10 | 0.00 | 96 | 1019.1 |
| 20260905114532 | 8 | 247 | 0.0 | 0.0 | 0.00 | 0.10 | 0.00 | 96 | 1018.9 |
| 20260905111532 | 8 | 146 | 0.0 | 1.6 | 0.00 | 0.10 | 0.00 | 96 | 1018.7 |
| 20260905104530 | 8 | 202 | 0.0 | 1.6 | 0.00 | 0.13 | 0.00 | 96 | 1018.8 |
| 20260905103106 | 8 | 202 | 0.0 | 0.0 | 0.00 | 0.13 | 0.00 | 96 | 1018.7 |
| 20260905101531 | 9 | 202 | 0.0 | 0.0 | 0.00 | 0.13 | 0.00 | 95 | 1018.8 |
| 20260905100031 | 9 | 202 | 0.0 | 0.0 | 0.00 | 0.13 | 0.00 | 95 | 1018.8 |
| 20260905093033 | 9 | 202 | 0.0 | 0.0 | 0.00 | 0.13 | 0.00 | 95 | 1018.9 |
| 20260905091530 | 9 | 202 | 0.0 | 0.0 | 0.00 | 0.13 | 0.00 | 95 | 1018.8 |
| 20260905090104 | 9 | 232 | 0.0 | 4.8 | 0.00 | 0.13 | 0.00 | 95 | 1018.7 |
| 20260905083031 | 9 | 247 | 0.0 | 0.0 | 0.00 | 0.13 | 0.00 | 95 | 1018.6 |
| 20260905081531 | 9 | 247 | 0.0 | 0.0 | 0.00 | 0.13 | 0.00 | 95 | 1018.6 |
| 20260905080031 | 9 | 247 | 0.0 | 0.0 | 0.00 | 0.13 | 0.00 | 95 | 1018.5 |
| 20260905074606 | 10 | 232 | 0.0 | 4.8 | 0.00 | 0.13 | 0.00 | 95 | 1018.3 |
| 20260905071604 | 10 | 153 | 1.6 | 3.2 | 0.00 | 0.13 | 0.00 | 94 | 1018.1 |
| 20260905070030 | 10 | 169 | 1.6 | 3.2 | 0.03 | 0.13 | 0.00 | 94 | 1018.0 |
| 20260905063030 | 10 | 196 | 0.0 | 4.8 | 0.05 | 0.13 | 0.13 | 94 | 1017.9 |
| 20260905061531 | 11 | 360 | 1.6 | 4.8 | 0.05 | 0.13 | 0.10 | 94 | 1017.9 |
| 20260905060031 | 11 | 109 | 0.0 | 4.8 | 0.03 | 0.10 | 0.08 | 93 | 1018.1 |
| 20260905054531 | 11 | 153 | 1.6 | 6.4 | 0.00 | 0.08 | 0.08 | 93 | 1018.1 |
| 20260905053031 | 10 | 157 | 3.2 | 6.4 | 0.00 | 0.08 | 0.08 | 93 | 1018.0 |
| 20260905051530 | 10 | 157 | 0.0 | 0.0 | 0.00 | 0.08 | 0.08 | 92 | 1018.0 |
| 20260905043030 | 10 | 157 | 0.0 | 1.6 | 0.00 | 0.08 | 0.08 | 91 | 1017.7 |
| 20260905041530 | 11 | 157 | 0.0 | 1.6 | 0.00 | 0.08 | 0.08 | 91 | 1017.6 |
| 20260905040107 | 10 | 157 | 0.0 | 3.2 | 0.00 | 0.08 | 0.08 | 90 | 1017.5 |
| 20260905033030 | 10 | 180 | 1.6 | 6.4 | 0.00 | 0.08 | 0.08 | 87 | 1017.2 |
| 20260905031530 | 12 | 148 | 0.0 | 0.0 | 0.00 | 0.08 | 0.08 | 84 | 1017.1 |
| 20260905024530 | 13 | 67 | 0.0 | 4.8 | 0.00 | 0.08 | 0.08 | 83 | 1017.1 |
| 20260905023107 | 13 | 67 | 1.6 | 3.2 | 0.00 | 0.08 | 0.08 | 81 | 1017.2 |
| 20260905021532 | 15 | 48 | 3.2 | 8.0 | 0.00 | 0.08 | 0.08 | 79 | 1017.0 |
| 20260905020032 | 15 | 24 | 1.6 | 8.0 | 0.00 | 0.08 | 0.08 | 77 | 1016.8 |
| 20260905014603 | 15 | 22 | 0.0 | 3.2 | 0.00 | 0.08 | 0.08 | 77 | 1016.6 |
| 20260905013028 | 15 | 22 | 0.0 | 3.2 | 0.00 | 0.08 | 0.08 | 77 | 1016.4 |